Location: Breitenfeld
(46.8500°N, 15.6333°E)
Time: 23:59:46
(UTC+00:00)

Transit 4B - Pass Details

Date: 31 May 2022
Orbit: 948 x 1097 km, 32.4° (Epoch: 03 July)

Event Time Altitude Azimuth Distance (km) Brightness Sun altitude
Exits shadow 01:36:36 16° 214° (SSW) 2,347 9.8 -12.2°
Maximum altitude 01:39:48 23° 178° (S) 1,976 9.7 -11.9°
Drops below altitude 10° 01:44:42 10° 129° (SE) 2,702 10.8 -11.3°
Sets 01:47:52 0° 115° (ESE) 3,631 11.7 -11.0°
